GW3329 Weather Reports


time (UTC)temp
C
wind
direction
speed
KPH
gust
KPH
rain 1hr
cm
rain 24hr
cm
rain mn
cm
humidity
%
barometer
mb
20260509212116 23 183 1.6 11.3 0.00 0.00 0.00 63 1016.3
20260509211612 23 229 3.2 3.2 0.00 0.00 0.00 63 1016.6
20260509211109 23 237 6.4 11.3 0.00 0.00 0.00 64 1016.5
20260509210605 23 35 3.2 6.4 0.00 0.00 0.00 64 1016.6
20260509205556 23 169 3.2 6.4 0.00 0.00 0.00 65 1016.9
20260509205051 23 284 6.4 11.3 0.00 0.00 0.00 65 1016.9
20260509204548 23 25 1.6 6.4 0.00 0.00 0.00 65 1016.8
20260509204045 23 29 3.2 4.8 0.00 0.00 0.00 65 1016.6
20260509203540 23 50 3.2 12.9 0.00 0.00 0.00 66 1016.7
20260509203038 23 170 3.2 4.8 0.00 0.00 0.00 65 1016.9
20260509202533 23 326 3.2 3.2 0.00 0.00 0.00 66 1017.0
20260509202029 23 243 8.0 12.9 0.00 0.00 0.00 65 1017.0
20260509201524 23 146 3.2 11.3 0.00 0.00 0.00 65 1016.9
20260509201021 23 184 3.2 6.4 0.00 0.00 0.00 65 1017.1
20260509200515 22 208 1.6 6.4 0.00 0.00 0.00 66 1017.0
20260509200012 22 27 0.0 4.8 0.00 0.00 0.00 67 1016.7
20260509195508 23 235 3.2 4.8 0.00 0.00 0.00 66 1016.9
20260509195002 22 49 0.0 4.8 0.00 0.00 0.00 68 1017.2
20260509194457 22 30 3.2 9.7 0.00 0.00 0.00 67 1017.2
20260509193954 22 169 3.2 9.7 0.00 0.00 0.00 68 1017.2
20260509193449 22 209 4.8 6.4 0.00 0.00 0.00 67 1017.2
20260509192945 22 203 4.8 4.8 0.00 0.00 0.00 67 1017.0
20260509192442 23 189 3.2 6.4 0.00 0.00 0.00 66 1017.2
20260509191937 22 204 3.2 12.9 0.00 0.00 0.00 68 1017.2
20260509191432 22 213 3.2 9.7 0.00 0.00 0.00 67 1017.6
20260509190929 22 236 1.6 11.3 0.00 0.00 0.00 67 1017.2
20260509190426 22 344 1.6 6.4 0.00 0.00 0.00 69 1017.3
20260509185924 21 263 4.8 11.3 0.00 0.00 0.00 69 1017.3
20260509185421 22 305 6.4 9.7 0.00 0.00 0.00 68 1017.2
20260509184917 21 193 4.8 6.4 0.00 0.00 0.00 69 1017.4
20260509184415 22 225 4.8 9.7 0.00 0.00 0.00 68 1017.3
20260509183911 21 42 0.0 3.2 0.00 0.00 0.00 71 1017.5
20260509183406 21 302 3.2 4.8 0.00 0.00 0.00 71 1017.5
20260509182902 21 284 4.8 4.8 0.00 0.00 0.00 72 1017.6
20260509182359 21 143 1.6 6.4 0.00 0.00 0.00 72 1017.6
20260509181857 20 251 3.2 6.4 0.00 0.00 0.00 74 1017.6
20260509181354 20 162 1.6 3.2 0.00 0.00 0.00 74 1017.8
20260509180851 20 355 1.6 4.8 0.00 0.00 0.00 75 1017.6
20260509180346 20 92 0.0 6.4 0.00 0.00 0.00 77 1017.8
20260509175844 19 220 4.8 4.8 0.00 0.00 0.00 77 1017.8
20260509175340 19 262 3.2 6.4 0.00 0.00 0.00 79 1017.8
20260509174836 18 13 1.6 4.8 0.00 0.00 0.00 81 1017.6
20260509174332 18 158 0.0 6.4 0.00 0.00 0.00 81 1017.7
20260509173828 18 358 1.6 3.2 0.00 0.00 0.00 79 1018.0
20260509173323 18 210 1.6 9.7 0.00 0.00 0.00 81 1017.8
20260509172820 18 296 4.8 4.8 0.00 0.00 0.00 81 1017.8
20260509172317 18 238 3.2 6.4 0.00 0.00 0.00 82 1018.1
20260509171813 18 257 3.2 6.4 0.00 0.00 0.00 81 1017.6
20260509171308 18 191 1.6 4.8 0.00 0.00 0.00 81 1017.8
20260509170805 17 172 0.0 4.8 0.00 0.00 0.00 84 1017.5
20260509170301 17 257 1.6 3.2 0.00 0.00 0.00 84 1017.6
20260509165800 17 281 1.6 3.2 0.00 0.00 0.00 84 1017.8
20260509165255 17 347 3.2 3.2 0.00 0.00 0.00 85 1017.7
20260509164751 16 78 1.6 3.2 0.00 0.00 0.00 86 1017.7
20260509164248 16 173 3.2 4.8 0.00 0.00 0.00 86 1017.8
20260509163745 16 183 4.8 6.4 0.00 0.00 0.00 88 1017.4
20260509163241 16 250 1.6 4.8 0.00 0.00 0.00 88 1017.8
20260509162739 16 327 4.8 6.4 0.00 0.00 0.00 88 1017.8
20260509162234 16 157 0.0 3.2 0.00 0.00 0.00 88 1017.8
20260509161730 16 141 0.0 3.2 0.00 0.00 0.00 89 1018.0
20260509161226 15 239 1.6 3.2 0.00 0.00 0.00 90 1017.7
20260509160721 15 336 0.0 0.0 0.00 0.00 0.00 92 1017.6
20260509160218 15 187 1.6 3.2 0.00 0.00 0.00 93 1017.8
20260509155713 14 176 1.6 4.8 0.00 0.00 0.00 93 1017.8
20260509155210 14 212 3.2 4.8 0.00 0.00 0.00 93 1017.8
20260509154706 14 228 1.6 4.8 0.00 0.00 0.00 93 1017.9
20260509154203 14 134 0.0 3.2 0.00 0.00 0.00 94 1017.9
20260509153700 14 184 0.0 0.0 0.00 0.00 0.00 93 1017.8
20260509153156 14 152 0.0 1.6 0.00 0.00 0.00 94 1017.9
20260509152652 13 161 0.0 0.0 0.00 0.00 0.00 95 1017.7
20260509152149 13 242 3.2 3.2 0.00 0.00 0.00 95 1017.9
20260509151646 13 187 0.0 1.6 0.00 0.00 0.00 96 1017.7
20260509151143 13 309 0.0 1.6 0.00 0.00 0.00 96 1017.5
20260509150641 13 156 0.0 0.0 0.00 0.00 0.00 97 1017.8
20260509150139 13 126 0.0 0.0 0.00 0.00 0.00 97 1017.4
20260509145635 13 124 0.0 0.0 0.00 0.00 0.00 97 1017.8
20260509145130 13 136 0.0 0.0 0.00 0.00 0.00 98 1017.7
20260509144627 12 135 0.0 0.0 0.00 0.00 0.00 98 1017.8
20260509144124 12 142 0.0 0.0 0.00 0.00 0.00 98 1017.6
20260509143621 12 145 0.0 0.0 0.00 0.00 0.00 98 1017.7
20260509143119 12 147 0.0 0.0 0.00 0.00 0.00 98 1017.8
20260509142614 12 170 0.0 0.0 0.00 0.00 0.00 98 1017.7
20260509142111 12 133 0.0 0.0 0.00 0.00 0.00 98 1017.8
20260509141607 12 142 0.0 0.0 0.00 0.00 0.00 98 1017.8
20260509141103 12 78 0.0 0.0 0.00 0.00 0.00 98 1017.8
20260509140600 12 132 0.0 0.0 0.00 0.00 0.00 98 1017.6
20260509140058 12 126 0.0 0.0 0.00 0.00 0.00 98 1017.7
20260509135555 12 149 0.0 0.0 0.00 0.00 0.00 98 1017.7
20260509135053 12 323 0.0 0.0 0.00 0.00 0.00 98 1017.5
20260509134549 12 165 0.0 0.0 0.00 0.00 0.00 98 1017.6
20260509134047 12 345 0.0 0.0 0.00 0.00 0.00 98 1017.4
20260509133544 12 133 0.0 1.6 0.00 0.00 0.00 98 1017.3
20260509133042 12 149 0.0 0.0 0.00 0.00 0.00 98 1017.3
20260509132540 12 87 0.0 0.0 0.00 0.00 0.00 98 1017.1
20260509132037 12 163 0.0 0.0 0.00 0.00 0.00 98 1017.4
20260509131528 12 161 0.0 0.0 0.00 0.00 0.00 98 1017.4
20260509131025 11 156 0.0 0.0 0.00 0.00 0.00 98 1017.3
20260509130520 11 162 0.0 0.0 0.00 0.00 0.00 98 1017.4
20260509130018 11 186 0.0 0.0 0.00 0.00 0.00 97 1017.2
20260509125514 11 162 0.0 0.0 0.00 0.00 0.00 98 1017.2
20260509125010 11 165 0.0 0.0 0.00 0.00 0.00 98 1017.1
20260509124507 11 168 0.0 0.0 0.00 0.00 0.00 98 1017.1
20260509124004 11 158 0.0 0.0 0.00 0.00 0.00 98 1017.0
20260509123502 11 161 0.0 0.0 0.00 0.00 0.00 98 1016.9
20260509122957 11 146 0.0 0.0 0.00 0.00 0.00 98 1016.9
20260509122455 11 166 0.0 0.0 0.00 0.00 0.00 98 1017.1
20260509121951 11 155 0.0 0.0 0.00 0.00 0.00 98 1017.0
20260509121448 11 164 0.0 0.0 0.00 0.00 0.00 98 1016.9
20260509120946 11 171 0.0 0.0 0.00 0.00 0.00 98 1016.9
20260509120444 11 34 0.0 0.0 0.00 0.00 0.00 98 1016.9
20260509115942 11 145 0.0 0.0 0.00 0.00 0.00 98 1016.9
20260509115439 11 171 0.0 0.0 0.00 0.00 0.00 98 1016.8
20260509114936 11 145 0.0 0.0 0.00 0.00 0.00 98 1017.1
20260509114435 11 161 0.0 0.0 0.00 0.00 0.00 98 1017.0
20260509113934 11 160 0.0 0.0 0.00 0.00 0.00 98 1016.9
20260509113431 11 157 0.0 0.0 0.00 0.00 0.00 98 1017.1
20260509112927 11 157 0.0 0.0 0.00 0.00 0.00 98 1016.9
20260509112425 11 164 0.0 0.0 0.00 0.00 0.00 98 1017.1
20260509111921 11 146 0.0 0.0 0.00 0.00 0.00 98 1017.2
20260509111419 11 160 0.0 0.0 0.00 0.00 0.00 98 1017.0
20260509110916 11 160 0.0 0.0 0.00 0.00 0.00 98 1017.2
20260509110412 10 160 0.0 0.0 0.00 0.00 0.00 98 1017.2
20260509105910 10 160 0.0 0.0 0.00 0.00 0.00 98 1017.1
20260509105408 10 162 0.0 0.0 0.00 0.00 0.00 98 1017.5
20260509104905 10 144 0.0 0.0 0.00 0.00 0.00 98 1017.0
20260509104402 10 144 0.0 0.0 0.00 0.00 0.00 98 1017.3
20260509103859 10 177 0.0 0.0 0.00 0.00 0.00 98 1017.3
20260509103356 10 184 0.0 1.6 0.00 0.00 0.00 98 1017.3
20260509102855 10 171 0.0 0.0 0.00 0.00 0.00 98 1017.2
20260509102352 10 163 0.0 0.0 0.00 0.00 0.00 98 1017.2
20260509101847 10 163 0.0 0.0 0.00 0.00 0.00 98 1017.2
20260509101344 10 170 0.0 0.0 0.00 0.00 0.00 98 1017.2
20260509100842 10 173 0.0 0.0 0.00 0.00 0.00 98 1017.1
20260509100339 11 173 0.0 0.0 0.00 0.00 0.00 98 1017.3
20260509095835 11 176 0.0 0.0 0.00 0.00 0.00 98 1017.2
20260509095333 11 187 0.0 1.6 0.00 0.00 0.00 98 1017.3
20260509094830 11 196 0.0 0.0 0.00 0.00 0.00 98 1017.3
20260509094326 11 179 0.0 3.2 0.00 0.00 0.00 98 1017.2
20260509093824 11 195 0.0 0.0 0.00 0.00 0.00 98 1017.4
20260509093321 11 173 0.0 0.0 0.00 0.00 0.00 98 1017.3
20260509092820 11 172 0.0 0.0 0.00 0.00 0.00 98 1017.2
20260509092317 11 172 0.0 0.0 0.00 0.00 0.00 98 1017.2
20260509091815 11 172 0.0 0.0 0.00 0.00 0.00 98 1017.2
20260509091311 11 172 0.0 0.0 0.00 0.00 0.00 98 1017.1
20260509090809 11 172 0.0 0.0 0.00 0.00 0.00 98 1017.3
20260509090306 11 172 0.0 0.0 0.00 0.00 0.00 97 1017.4
20260509085803 11 172 0.0 0.0 0.00 0.00 0.00 97 1017.5
20260509085301 11 172 0.0 0.0 0.00 0.00 0.00 97 1017.6
20260509084757 11 172 0.0 0.0 0.00 0.00 0.00 97 1017.5
20260509084254 11 172 0.0 0.0 0.00 0.00 0.00 97 1017.8
20260509083752 11 172 0.0 0.0 0.00 0.00 0.00 97 1017.4
20260509083248 11 172 0.0 0.0 0.00 0.00 0.00 97 1017.6
20260509082745 11 172 0.0 0.0 0.00 0.00 0.00 97 1017.7
20260509082241 11 173 0.0 0.0 0.00 0.00 0.00 97 1017.6
20260509081738 11 172 0.0 0.0 0.00 0.00 0.00 97 1017.6
20260509081236 11 172 0.0 0.0 0.00 0.00 0.00 97 1017.8
20260509080734 11 172 0.0 0.0 0.00 0.00 0.00 97 1018.0
20260509080231 11 172 0.0 0.0 0.00 0.00 0.00 97 1017.9
20260509075729 11 172 0.0 0.0 0.00 0.00 0.00 97 1018.1
20260509075227 11 172 0.0 0.0 0.00 0.00 0.00 97 1017.8
20260509074723 11 172 0.0 0.0 0.00 0.00 0.00 96 1018.0
20260509074221 11 172 0.0 0.0 0.00 0.00 0.00 96 1018.1
20260509073717 11 172 0.0 0.0 0.00 0.00 0.00 96 1018.0
20260509073214 12 172 0.0 0.0 0.00 0.00 0.00 96 1017.8
20260509072710 12 172 0.0 0.0 0.00 0.00 0.00 96 1017.8
20260509072207 12 172 0.0 0.0 0.00 0.00 0.00 96 1017.8
20260509071703 12 173 0.0 0.0 0.00 0.00 0.00 96 1018.0
20260509071201 12 173 0.0 0.0 0.00 0.00 0.00 96 1018.0
20260509070658 12 173 0.0 0.0 0.00 0.00 0.00 96 1018.0
20260509070154 12 173 0.0 0.0 0.00 0.00 0.00 95 1017.9
20260509065650 12 173 0.0 0.0 0.00 0.00 0.00 95 1018.1
20260509065147 12 173 0.0 0.0 0.00 0.00 0.00 95 1018.1
20260509064643 12 173 0.0 0.0 0.00 0.00 0.00 95 1018.2
20260509064141 12 173 0.0 0.0 0.00 0.00 0.00 95 1018.1
20260509063638 12 174 0.0 0.0 0.00 0.00 0.00 95 1018.1
20260509063134 12 174 0.0 0.0 0.00 0.00 0.00 94 1018.1
20260509062632 12 174 0.0 0.0 0.00 0.00 0.00 94 1018.1
20260509062129 12 174 0.0 0.0 0.00 0.00 0.00 94 1018.3
20260509061626 13 176 0.0 0.0 0.00 0.00 0.00 94 1018.0
20260509061123 13 177 0.0 0.0 0.00 0.00 0.00 93 1018.1
20260509060621 13 190 0.0 0.0 0.00 0.00 0.00 93 1018.0
20260509060116 13 174 0.0 0.0 0.00 0.00 0.00 93 1018.2
20260509055612 13 180 0.0 1.6 0.00 0.00 0.00 93 1017.9
20260509055108 13 183 0.0 0.0 0.00 0.00 0.00 93 1018.3
20260509054605 13 178 0.0 0.0 0.00 0.00 0.00 93 1018.2
20260509054103 13 195 0.0 0.0 0.00 0.00 0.00 93 1018.1
20260509053601 13 168 0.0 0.0 0.00 0.00 0.00 93 1018.1
20260509053058 13 164 0.0 0.0 0.00 0.00 0.00 93 1018.1
20260509052555 13 165 0.0 0.0 0.00 0.00 0.00 93 1018.0
20260509052053 13 165 0.0 0.0 0.00 0.00 0.00 92 1018.1
20260509051551 13 167 0.0 0.0 0.00 0.00 0.00 92 1018.3
20260509051047 13 168 0.0 0.0 0.00 0.00 0.00 92 1018.3
20260509050544 13 171 0.0 0.0 0.00 0.00 0.00 92 1018.1
20260509050041 13 170 0.0 0.0 0.00 0.00 0.00 92 1018.0
20260509045538 13 173 0.0 0.0 0.00 0.00 0.00 92 1018.2
20260509045035 13 175 0.0 0.0 0.00 0.00 0.00 92 1018.1
20260509044533 13 178 0.0 0.0 0.00 0.00 0.00 92 1018.0
20260509044030 13 187 0.0 0.0 0.00 0.00 0.00 91 1017.9
20260509043526 13 160 0.0 0.0 0.00 0.00 0.00 91 1017.8
20260509043022 14 164 0.0 0.0 0.00 0.00 0.00 91 1017.7
20260509042518 14 164 0.0 0.0 0.00 0.00 0.00 91 1017.8
20260509042014 14 165 0.0 0.0 0.00 0.00 0.00 91 1017.7
20260509041511 14 170 0.0 0.0 0.00 0.00 0.00 91 1017.7
20260509041009 14 172 0.0 0.0 0.00 0.00 0.00 91 1017.7
20260509040507 14 171 0.0 0.0 0.00 0.00 0.00 91 1017.5
20260509040004 13 170 0.0 0.0 0.00 0.00 0.00 90 1017.5
20260509035501 14 170 0.0 0.0 0.00 0.00 0.00 91 1017.5
20260509034957 14 163 0.0 0.0 0.00 0.00 0.00 90 1017.5
20260509034455 14 163 0.0 0.0 0.00 0.00 0.00 90 1017.7
20260509033952 14 163 0.0 0.0 0.00 0.00 0.00 90 1017.6
20260509033449 14 166 0.0 0.0 0.00 0.00 0.00 89 1017.6
20260509032945 15 169 0.0 0.0 0.00 0.00 0.00 89 1017.6
20260509032443 15 157 0.0 0.0 0.00 0.00 0.00 88 1017.5
20260509031940 15 128 0.0 0.0 0.00 0.00 0.00 87 1017.4
20260509031438 15 31 0.0 1.6 0.00 0.00 0.00 87 1017.6
20260509030935 15 26 0.0 1.6 0.00 0.00 0.00 87 1017.4
20260509030433 15 41 0.0 3.2 0.00 0.00 0.00 86 1017.5
20260509025930 15 49 0.0 3.2 0.00 0.00 0.00 86 1017.5
20260509025425 15 344 1.6 1.6 0.00 0.00 0.00 86 1017.4
20260509024921 15 32 3.2 4.8 0.00 0.00 0.00 85 1017.4
20260509024417 16 163 0.0 0.0 0.00 0.00 0.00 85 1017.2
20260509023914 16 167 0.0 0.0 0.00 0.00 0.00 85 1017.1
20260509023411 16 176 0.0 1.6 0.00 0.00 0.00 85 1016.9
20260509022908 16 180 0.0 0.0 0.00 0.00 0.00 84 1017.1
20260509022405 16 184 0.0 0.0 0.00 0.00 0.00 84 1017.0
20260509021902 16 210 0.0 1.6 0.00 0.00 0.00 84 1016.7
20260509021359 16 178 0.0 3.2 0.00 0.00 0.00 84 1017.1
20260509020857 16 184 1.6 1.6 0.00 0.00 0.00 83 1017.3
20260509020355 16 133 0.0 0.0 0.00 0.00 0.00 83 1017.2
20260509015852 16 123 0.0 3.2 0.00 0.00 0.00 83 1017.2
20260509015350 16 191 0.0 1.6 0.00 0.00 0.00 82 1017.1
20260509014846 17 215 3.2 3.2 0.00 0.00 0.00 81 1017.1
20260509014343 17 59 1.6 3.2 0.00 0.00 0.00 80 1016.9
20260509013839 17 136 0.0 4.8 0.00 0.00 0.00 79 1017.2
20260509013336 17 180 0.0 0.0 0.00 0.00 0.00 78 1017.1
20260509012832 17 276 4.8 9.7 0.00 0.00 0.00 78 1017.2
20260509012329 18 229 4.8 6.4 0.00 0.00 0.00 77 1017.3
20260509011827 18 203 1.6 4.8 0.00 0.00 0.00 77 1017.0
20260509011324 18 355 1.6 4.8 0.00 0.00 0.00 77 1017.2
20260509010821 18 169 3.2 9.7 0.00 0.00 0.00 77 1017.1
20260509010319 18 278 3.2 4.8 0.00 0.00 0.00 76 1017.0
20260509005815 18 207 1.6 3.2 0.00 0.00 0.00 76 1017.1
20260509005313 18 256 6.4 9.7 0.00 0.00 0.00 76 1016.9
20260509004808 18 27 1.6 4.8 0.00 0.00 0.00 76 1017.0
20260509004304 18 305 1.6 11.3 0.00 0.00 0.00 76 1017.0
20260509003803 18 265 1.6 9.7 0.00 0.00 0.00 76 1017.0
20260509003300 18 277 3.2 9.7 0.00 0.00 0.00 75 1017.2
20260509002757 19 182 0.0 4.8 0.00 0.00 0.00 74 1017.1
20260509002255 19 297 3.2 4.8 0.00 0.00 0.00 74 1017.0
20260509001752 19 267 8.0 11.3 0.00 0.00 0.00 74 1017.1
20260509001248 20 159 0.0 6.4 0.00 0.00 0.00 72 1017.1
20260509000746 20 149 0.0 6.4 0.00 0.00 0.00 72 1017.2
20260509000242 20 224 1.6 4.8 0.00 0.00 0.00 72 1017.2
20260508235739 20 211 3.2 6.4 0.00 0.00 0.00 72 1017.3
20260508235230 20 60 1.6 11.3 0.00 0.00 0.00 72 1017.2
20260508234727 20 55 1.6 3.2 0.00 0.00 0.00 71 1017.1
20260508234223 20 168 3.2 12.9 0.00 0.00 0.00 71 1017.2
20260508233718 21 219 3.2 4.8 0.00 0.00 0.00 70 1017.3
20260508233215 20 59 3.2 6.4 0.00 0.00 0.00 71 1017.5
20260508232713 21 167 1.6 11.3 0.00 0.00 0.00 70 1017.2
20260508232209 21 300 3.2 6.4 0.00 0.00 0.00 71 1017.3
20260508231707 21 273 3.2 4.8 0.00 0.00 0.00 69 1017.6
20260508231204 21 248 8.0 14.5 0.00 0.00 0.00 71 1017.5
20260508230701 21 279 6.4 11.3 0.00 0.00 0.00 69 1017.7
20260508230156 21 166 3.2 9.7 0.00 0.00 0.00 68 1017.6
20260508225655 21 264 6.4 6.4 0.00 0.00 0.00 69 1017.5
20260508225150 21 257 1.6 4.8 0.00 0.00 0.00 68 1017.8
20260508224649 21 62 1.6 9.7 0.00 0.00 0.00 68 1017.7
20260508224146 22 243 0.0 6.4 0.00 0.00 0.00 68 1017.8
20260508223643 22 293 3.2 6.4 0.00 0.00 0.00 67 1017.8
20260508223141 22 188 9.7 12.9 0.00 0.00 0.00 67 1018.0
20260508222638 22 12 1.6 6.4 0.00 0.00 0.00 66 1018.0
20260508222135 22 114 1.6 6.4 0.00 0.00 0.00 67 1017.9
20260508221631 21 149 3.2 11.3 0.00 0.00 0.00 69 1018.1
20260508221127 22 340 3.2 6.4 0.00 0.00 0.00 67 1018.0
20260508220624 22 4 4.8 4.8 0.00 0.00 0.00 68 1018.2
20260508220120 22 140 3.2 4.8 0.00 0.00 0.00 68 1018.1
20260508215617 22 167 0.0 6.4 0.00 0.00 0.00 67 1018.2
20260508215114 22 236 6.4 9.7 0.00 0.00 0.00 67 1018.3
20260508214611 22 79 1.6 9.7 0.00 0.00 0.00 68 1018.5
20260508214108 21 283 6.4 9.7 0.00 0.00 0.00 67 1018.3
20260508213604 22 59 3.2 3.2 0.00 0.00 0.00 68 1018.4
20260508213101 21 316 1.6 6.4 0.00 0.00 0.00 70 1018.4
20260508212557 22 84 1.6 9.7 0.00 0.00 0.00 68 1018.5